User: anonymous   Login
Location: Lecco
(45.8566°N, 9.3977°E)
Time: 07:13:56
(UTC+02:00)
Language:

Courier 1B Rocket - Orbit

View from above orbital plane
View from above orbital plane
View from above satellite
View from above satellite

Ground track
Ground track

The orbit data is extracted from the following two-line orbital elements,

1    59U 60013B   19228.78179909 +.00000111 +00000-0 +26241-4 0  9998
2    59 028.2501 348.3646 0189245 240.6360 117.5163 13.52969763905175
Epoch (UTC): 16 August 2019 18:45:47
Eccentricity: 0.0189245
inclination: 28.2501°
perigee height: 920 km
apogee height: 1202 km
right ascension of ascending node: 348.3646°
argument of perigee: 240.6360°
revolutions per day: 13.52969763
mean anomaly at epoch: 117.5163°
orbit number at epoch: 90517

The dashed part of the orbit path shows where the satellite is in the earth's shadow,  

DLR